TimeMST,TemperatureF,Dew PointF,Humidity,Sea Level PressureIn,VisibilityMPH,Wind Direction,Wind SpeedMPH,Gust SpeedMPH,PrecipitationIn,Events,Conditions,WindDirDegrees,DateUTC
12:54 AM,48.9,24.1,38,29.80,10.0,WSW,10.4,-,N/A,,Clear,240,2014-02-15 07:54:00
1:54 AM,51.1,23.0,33,29.81,10.0,West,3.5,-,N/A,,Clear,270,2014-02-15 08:54:00
2:54 AM,48.9,23.0,36,29.80,10.0,NNE,4.6,-,N/A,,Clear,30,2014-02-15 09:54:00
3:54 AM,57.9,19.0,22,29.76,10.0,North,8.1,-,N/A,,Clear,360,2014-02-15 10:54:00
4:54 AM,55.9,19.9,25,29.79,10.0,Calm,Calm,-,N/A,,Clear,0,2014-02-15 11:54:00
5:54 AM,50.0,21.0,32,29.82,10.0,Variable,3.5,-,N/A,,Mostly Cloudy,0,2014-02-15 12:54:00
6:20 AM,53.1,21.0,29,29.91,9.0,Variable,3.5,19.6,N/A,,Scattered Clouds,0,2014-02-15 13:20:00
6:54 AM,55.9,19.0,24,29.81,10.0,WNW,15.0,21.9,N/A,,Clear,290,2014-02-15 13:54:00
7:54 AM,61.0,17.1,18,29.81,10.0,NNW,18.4,29.9,N/A,,Clear,330,2014-02-15 14:54:00
8:54 AM,64.0,18.0,17,29.81,10.0,ESE,8.1,-,N/A,,Clear,120,2014-02-15 15:54:00
9:54 AM,64.9,15.1,15,29.82,10.0,NE,6.9,-,N/A,,Clear,50,2014-02-15 16:54:00
10:54 AM,69.1,12.0,11,29.83,10.0,North,20.7,27.6,N/A,,Partly Cloudy,360,2014-02-15 17:54:00
11:54 AM,68.0,10.9,11,29.83,10.0,West,20.7,38.0,N/A,,Clear,260,2014-02-15 18:54:00
12:54 PM,70.0,10.0,10,29.80,10.0,West,20.7,33.4,N/A,,Clear,280,2014-02-15 19:54:00
1:54 PM,71.1,12.0,10,29.78,10.0,NNW,16.1,24.2,N/A,,Clear,340,2014-02-15 20:54:00
2:18 PM,66.0,30.0,26,29.97,10.0,NE,17.3,-,N/A,,Clear,40,2014-02-15 21:18:00
2:54 PM,59.0,34.0,39,29.85,10.0,NNE,20.7,28.8,N/A,,Clear,30,2014-02-15 21:54:00
3:54 PM,51.1,35.1,54,29.90,10.0,NE,12.7,-,N/A,,Clear,50,2014-02-15 22:54:00
4:54 PM,48.0,35.1,61,29.95,10.0,ENE,13.8,-,N/A,,Clear,60,2014-02-15 23:54:00
5:54 PM,42.1,34.0,73,30.03,10.0,ENE,8.1,-,N/A,,Clear,60,2014-02-16 00:54:00
6:54 PM,37.9,33.1,83,30.06,10.0,NE,5.8,-,N/A,,Clear,40,2014-02-16 01:54:00
7:54 PM,36.0,32.0,86,30.04,10.0,Calm,Calm,-,N/A,,Clear,0,2014-02-16 02:54:00
8:54 PM,34.0,30.9,89,30.03,10.0,West,3.5,-,N/A,,Clear,280,2014-02-16 03:54:00
9:54 PM,30.0,28.0,92,30.03,10.0,West,3.5,-,N/A,,Clear,280,2014-02-16 04:54:00
10:54 PM,30.9,28.9,92,30.00,10.0,Calm,Calm,-,N/A,,Clear,0,2014-02-16 05:54:00
11:54 PM,27.0,25.0,92,30.00,10.0,West,5.8,-,N/A,,Clear,270,2014-02-16 06:54:00